Location: Newark
(35.6799°N, 139.7636°E)
Time: 11:19:44
(UTC+00:00)

Courier 1B Rocket - Pass Details

Date: 19 December 2019
Orbit: 920 x 1202 km, 28.2° (Epoch: 18 January)

Event Time Altitude Azimuth Distance (km) Brightness Sun altitude
Exits shadow 18:58:45 48° 180° (S) 1,440 5.8 -33.0°
Maximum altitude 18:58:48 48° 179° (S) 1,439 5.8 -33.0°
Drops below altitude 10° 19:05:40 10° 107° (ESE) 2,913 8.3 -31.6°
Sets 19:08:25 0° 102° (ESE) 3,825 9.3 -31.1°
